| time (UTC) | temp C | wind direction | speed KPH | gust KPH | rain 1hr cm | rain 24hr cm | rain mn cm | humidity % | barometer mb |
| 20260901201003 | 24 | 0 | 0.0 | 0.0 | 0.00 | 2.13 | 2.13 | 62 | 1017.8 |
| 20260901200503 | 24 | 0 | 0.0 | 0.0 | 0.00 | 2.13 | 2.13 | 62 | 1017.7 |
| 20260901200003 | 24 | 0 | 0.0 | 0.0 | 0.00 | 2.13 | 2.13 | 62 | 1017.7 |
| 20260901195503 | 24 | 0 | 0.0 | 0.0 | 0.00 | 2.13 | 2.13 | 62 | 1017.7 |
| 20260901195024 | 24 | 0 | 0.0 | 0.0 | 0.00 | 2.13 | 2.13 | 62 | 1017.8 |
| 20260901194503 | 24 | 0 | 0.0 | 0.0 | 0.00 | 2.13 | 2.13 | 62 | 1017.6 |
| 20260901194003 | 24 | 22 | 0.0 | 3.2 | 0.00 | 2.13 | 2.13 | 62 | 1017.4 |
| 20260901193503 | 24 | 22 | 0.0 | 4.8 | 0.00 | 2.13 | 2.13 | 62 | 1017.5 |
| 20260901193003 | 24 | 22 | 0.0 | 4.8 | 0.00 | 2.13 | 2.13 | 62 | 1017.7 |
| 20260901192503 | 24 | 0 | 0.0 | 0.0 | 0.00 | 2.13 | 2.13 | 62 | 1017.5 |
| 20260901192003 | 24 | 0 | 0.0 | 0.0 | 0.00 | 2.13 | 2.13 | 62 | 1017.5 |
| 20260901191503 | 25 | 0 | 0.0 | 0.0 | 0.00 | 2.13 | 2.13 | 61 | 1017.4 |
| 20260901191024 | 25 | 0 | 0.0 | 0.0 | 0.00 | 2.13 | 2.13 | 61 | 1017.3 |
| 20260901190503 | 25 | 0 | 0.0 | 0.0 | 0.00 | 2.13 | 2.13 | 61 | 1017.4 |
| 20260901190003 | 25 | 0 | 0.0 | 0.0 | 0.00 | 2.13 | 2.13 | 61 | 1017.2 |
| 20260901185524 | 25 | 0 | 0.0 | 0.0 | 0.00 | 2.13 | 2.13 | 60 | 1017.1 |
| 20260901185003 | 25 | 0 | 0.0 | 0.0 | 0.00 | 2.13 | 2.13 | 60 | 1017.1 |
| 20260901184503 | 25 | 0 | 0.0 | 0.0 | 0.00 | 2.13 | 2.13 | 59 | 1017.0 |
| 20260901184003 | 25 | 0 | 0.0 | 0.0 | 0.00 | 2.13 | 2.13 | 59 | 1017.0 |
| 20260901183524 | 25 | 0 | 0.0 | 0.0 | 0.00 | 2.13 | 2.13 | 59 | 1016.9 |
| 20260901183003 | 25 | 0 | 0.0 | 0.0 | 0.00 | 2.13 | 2.13 | 58 | 1016.9 |
| 20260901182503 | 25 | 0 | 0.0 | 0.0 | 0.00 | 2.13 | 2.13 | 59 | 1017.0 |
| 20260901182003 | 25 | 0 | 0.0 | 0.0 | 0.00 | 2.13 | 2.13 | 59 | 1016.9 |
| 20260901181503 | 25 | 0 | 0.0 | 0.0 | 0.00 | 2.13 | 2.13 | 58 | 1017.1 |
| 20260901181003 | 25 | 0 | 0.0 | 0.0 | 0.00 | 2.13 | 2.13 | 58 | 1016.8 |
| 20260901180503 | 26 | 0 | 0.0 | 0.0 | 0.00 | 2.13 | 2.13 | 57 | 1016.9 |
| 20260901180024 | 26 | 0 | 0.0 | 0.0 | 0.00 | 2.13 | 2.13 | 57 | 1016.8 |
| 20260901175503 | 26 | 0 | 0.0 | 0.0 | 0.00 | 2.13 | 2.13 | 56 | 1016.8 |
| 20260901175003 | 26 | 0 | 0.0 | 0.0 | 0.00 | 2.13 | 2.13 | 56 | 1016.8 |
| 20260901174503 | 26 | 0 | 0.0 | 0.0 | 0.00 | 2.13 | 2.13 | 56 | 1016.6 |
| 20260901174003 | 26 | 0 | 0.0 | 0.0 | 0.00 | 2.13 | 2.13 | 56 | 1016.7 |
| 20260901173503 | 26 | 0 | 0.0 | 0.0 | 0.00 | 2.13 | 2.13 | 56 | 1016.6 |
| 20260901173003 | 26 | 0 | 0.0 | 0.0 | 0.00 | 2.13 | 2.13 | 56 | 1016.6 |
| 20260901172503 | 26 | 0 | 0.0 | 0.0 | 0.00 | 2.13 | 2.13 | 56 | 1016.7 |
| 20260901172003 | 26 | 0 | 0.0 | 0.0 | 0.00 | 2.13 | 2.13 | 55 | 1016.4 |
| 20260901171503 | 27 | 0 | 0.0 | 0.0 | 0.00 | 2.13 | 2.13 | 55 | 1016.5 |
| 20260901171024 | 27 | 0 | 0.0 | 0.0 | 0.00 | 2.13 | 2.13 | 54 | 1016.4 |
| 20260901170503 | 27 | 0 | 0.0 | 0.0 | 0.00 | 2.13 | 2.13 | 53 | 1016.7 |
| 20260901170003 | 27 | 0 | 0.0 | 0.0 | 0.00 | 2.13 | 2.13 | 50 | 1016.5 |
| 20260901165503 | 27 | 0 | 0.0 | 0.0 | 0.00 | 2.13 | 2.13 | 49 | 1016.8 |
| 20260901165004 | 27 | 0 | 0.0 | 0.0 | 0.00 | 2.13 | 2.13 | 48 | 1016.6 |
| 20260901164503 | 28 | 0 | 0.0 | 0.0 | 0.00 | 2.13 | 2.13 | 46 | 1016.6 |
| 20260901164024 | 28 | 0 | 0.0 | 0.0 | 0.00 | 2.13 | 2.13 | 45 | 1016.6 |
| 20260901163524 | 28 | 135 | 1.6 | 4.8 | 0.00 | 2.13 | 2.13 | 45 | 1016.7 |
| 20260901163003 | 28 | 135 | 1.6 | 4.8 | 0.00 | 2.13 | 2.13 | 45 | 1016.8 |
| 20260901162503 | 28 | 205 | 1.6 | 4.8 | 0.00 | 2.13 | 2.13 | 45 | 1016.4 |
| 20260901162024 | 28 | 179 | 1.6 | 9.7 | 0.00 | 2.13 | 2.13 | 45 | 1016.7 |
| 20260901161503 | 28 | 202 | 4.8 | 9.7 | 0.00 | 2.13 | 2.13 | 45 | 1016.8 |
| 20260901161003 | 28 | 210 | 3.2 | 8.0 | 0.00 | 2.13 | 2.13 | 45 | 1016.8 |
| 20260901160503 | 29 | 0 | 0.0 | 0.0 | 0.00 | 2.13 | 2.13 | 44 | 1016.7 |
| 20260901160024 | 29 | 0 | 0.0 | 0.0 | 0.00 | 2.13 | 2.13 | 44 | 1016.8 |
| 20260901155503 | 29 | 202 | 1.6 | 6.4 | 0.00 | 2.13 | 2.13 | 44 | 1016.7 |
| 20260901155003 | 29 | 195 | 1.6 | 6.4 | 0.00 | 2.13 | 2.13 | 44 | 1016.8 |
| 20260901154503 | 29 | 182 | 1.6 | 6.4 | 0.00 | 2.13 | 2.13 | 44 | 1016.8 |
| 20260901154024 | 29 | 181 | 4.8 | 12.9 | 0.00 | 2.13 | 2.13 | 44 | 1016.8 |
| 20260901153503 | 29 | 199 | 6.4 | 12.9 | 0.00 | 2.13 | 2.13 | 44 | 1016.7 |
| 20260901153003 | 29 | 207 | 3.2 | 9.7 | 0.00 | 2.13 | 2.13 | 45 | 1016.7 |
| 20260901152503 | 29 | 184 | 3.2 | 9.7 | 0.00 | 2.13 | 2.13 | 45 | 1016.8 |
| 20260901152024 | 29 | 164 | 1.6 | 4.8 | 0.00 | 2.13 | 2.13 | 45 | 1016.9 |
| 20260901151503 | 29 | 178 | 3.2 | 11.3 | 0.00 | 2.13 | 2.13 | 46 | 1016.6 |
| 20260901151003 | 29 | 229 | 8.0 | 12.9 | 0.00 | 2.13 | 2.13 | 45 | 1016.7 |
| 20260901150503 | 29 | 230 | 9.7 | 12.9 | 0.00 | 2.13 | 2.13 | 45 | 1016.9 |
| 20260901150003 | 29 | 189 | 6.4 | 12.9 | 0.00 | 2.13 | 2.13 | 45 | 1016.8 |
| 20260901145503 | 29 | 115 | 8.0 | 12.9 | 0.00 | 2.13 | 2.13 | 45 | 1016.8 |
| 20260901145003 | 29 | 111 | 8.0 | 12.9 | 0.00 | 2.13 | 2.13 | 45 | 1016.9 |
| 20260901144503 | 29 | 134 | 3.2 | 12.9 | 0.00 | 2.13 | 2.13 | 45 | 1017.0 |
| 20260901144024 | 29 | 138 | 1.6 | 11.3 | 0.00 | 2.13 | 2.13 | 45 | 1016.9 |
| 20260901143524 | 29 | 198 | 3.2 | 11.3 | 0.00 | 2.13 | 2.13 | 46 | 1016.9 |
| 20260901143003 | 29 | 198 | 3.2 | 8.0 | 0.00 | 2.13 | 2.13 | 46 | 1017.0 |
| 20260901142503 | 29 | 146 | 6.4 | 12.9 | 0.00 | 2.13 | 2.13 | 46 | 1017.1 |
| 20260901142003 | 29 | 167 | 8.0 | 12.9 | 0.00 | 2.13 | 2.13 | 46 | 1017.1 |
| 20260901141524 | 29 | 199 | 4.8 | 12.9 | 0.00 | 2.13 | 2.13 | 47 | 1016.9 |
| 20260901141003 | 29 | 165 | 1.6 | 6.4 | 0.00 | 2.13 | 2.13 | 48 | 1017.0 |
| 20260901140503 | 28 | 191 | 1.6 | 6.4 | 0.00 | 2.13 | 2.13 | 48 | 1017.1 |
| 20260901140003 | 28 | 137 | 6.4 | 12.9 | 0.00 | 2.13 | 2.13 | 48 | 1017.1 |
| 20260901135503 | 28 | 147 | 8.0 | 12.9 | 0.00 | 2.13 | 2.13 | 48 | 1017.2 |
| 20260901135003 | 28 | 165 | 4.8 | 12.9 | 0.00 | 2.13 | 2.13 | 48 | 1017.1 |
| 20260901134503 | 28 | 216 | 3.2 | 11.3 | 0.00 | 2.13 | 2.13 | 49 | 1017.1 |
| 20260901134003 | 28 | 242 | 3.2 | 11.3 | 0.00 | 2.13 | 2.13 | 51 | 1017.2 |
| 20260901133524 | 28 | 187 | 4.8 | 11.3 | 0.00 | 2.13 | 2.13 | 50 | 1017.3 |
| 20260901133003 | 28 | 144 | 3.2 | 8.0 | 0.00 | 2.13 | 2.13 | 50 | 1017.3 |
| 20260901132503 | 28 | 59 | 1.6 | 4.8 | 0.00 | 2.13 | 2.13 | 50 | 1017.4 |
| 20260901132003 | 28 | 115 | 3.2 | 8.0 | 0.00 | 2.13 | 2.13 | 50 | 1017.4 |
| 20260901131503 | 28 | 115 | 4.8 | 9.7 | 0.00 | 2.13 | 2.13 | 50 | 1017.3 |
| 20260901131003 | 28 | 176 | 8.0 | 11.3 | 0.00 | 2.13 | 2.13 | 50 | 1017.6 |
| 20260901130503 | 28 | 187 | 9.7 | 12.9 | 0.00 | 2.13 | 2.13 | 50 | 1017.5 |
| 20260901130003 | 28 | 171 | 6.4 | 12.9 | 0.00 | 2.13 | 2.13 | 50 | 1017.5 |
| 20260901125503 | 28 | 223 | 4.8 | 12.9 | 0.00 | 2.13 | 2.13 | 51 | 1017.6 |
| 20260901125024 | 28 | 208 | 8.0 | 12.9 | 0.00 | 2.13 | 2.13 | 51 | 1017.7 |
| 20260901124503 | 28 | 133 | 6.4 | 11.3 | 0.00 | 2.13 | 2.13 | 51 | 1017.8 |
| 20260901124003 | 28 | 167 | 6.4 | 11.3 | 0.00 | 2.13 | 2.13 | 51 | 1017.8 |
| 20260901123503 | 28 | 176 | 3.2 | 11.3 | 0.00 | 2.13 | 2.13 | 52 | 1017.9 |
| 20260901123003 | 28 | 137 | 6.4 | 11.3 | 0.00 | 2.13 | 2.13 | 52 | 1017.9 |
| 20260901122503 | 28 | 188 | 8.0 | 12.9 | 0.00 | 2.13 | 2.13 | 51 | 1017.8 |
| 20260901122003 | 28 | 204 | 9.7 | 12.9 | 0.00 | 2.13 | 2.13 | 52 | 1017.9 |
| 20260901121503 | 28 | 191 | 6.4 | 12.9 | 0.00 | 2.13 | 2.13 | 52 | 1017.9 |
| 20260901121003 | 28 | 178 | 1.6 | 12.9 | 0.10 | 2.13 | 2.13 | 52 | 1018.0 |
| 20260901120503 | 27 | 153 | 1.6 | 6.4 | 0.13 | 2.13 | 2.13 | 51 | 1018.1 |
| 20260901120003 | 27 | 171 | 4.8 | 9.7 | 0.13 | 2.13 | 2.13 | 51 | 1018.0 |
| 20260901115503 | 27 | 178 | 8.0 | 9.7 | 0.13 | 2.13 | 2.13 | 51 | 1018.0 |
| 20260901115003 | 27 | 152 | 6.4 | 9.7 | 0.13 | 2.13 | 2.13 | 52 | 1018.0 |
| 20260901114526 | 27 | 94 | 3.2 | 9.7 | 0.13 | 2.13 | 2.13 | 52 | 1018.1 |
| 20260901114005 | 27 | 208 | 3.2 | 9.7 | 0.71 | 2.13 | 2.13 | 56 | 1018.1 |
| 20260901113505 | 27 | 224 | 3.2 | 9.7 | 0.84 | 2.13 | 2.13 | 52 | 1018.0 |
| 20260901113005 | 27 | 205 | 4.8 | 9.7 | 1.75 | 2.13 | 2.13 | 52 | 1018.1 |
| 20260901112505 | 27 | 201 | 4.8 | 9.7 | 2.11 | 2.13 | 2.13 | 51 | 1018.1 |
| 20260901112005 | 27 | 222 | 3.2 | 9.7 | 2.11 | 2.13 | 2.13 | 51 | 1018.4 |
| 20260901111505 | 28 | 268 | 1.6 | 6.4 | 2.11 | 2.13 | 2.13 | 50 | 1018.4 |
| 20260901111005 | 28 | 336 | 0.0 | 3.2 | 2.01 | 2.03 | 2.03 | 48 | 1018.1 |
| 20260901110505 | 30 | 309 | 1.6 | 6.4 | 1.98 | 2.01 | 2.01 | 46 | 1018.3 |
| 20260901110005 | 30 | 312 | 1.6 | 11.3 | 1.98 | 2.01 | 2.01 | 46 | 1018.5 |
| 20260901105505 | 31 | 315 | 1.6 | 11.3 | 1.98 | 2.01 | 2.01 | 47 | 1018.3 |
| 20260901105005 | 32 | 262 | 0.0 | 1.6 | 1.98 | 2.01 | 2.01 | 45 | 1018.5 |
| 20260901104505 | 32 | 208 | 0.0 | 1.6 | 1.98 | 2.01 | 2.01 | 51 | 1018.3 |
| 20260901104026 | 32 | 135 | 0.0 | 1.6 | 1.37 | 1.42 | 1.45 | 53 | 1018.3 |
| 20260901103505 | 30 | 113 | 1.6 | 6.4 | 1.27 | 1.30 | 1.30 | 56 | 1018.5 |
| 20260901103005 | 28 | 72 | 1.6 | 6.4 | 0.36 | 0.38 | 0.38 | 57 | 1018.5 |
| 20260901102505 | 27 | 80 | 1.6 | 4.8 | 0.00 | 0.03 | 0.03 | 60 | 1018.5 |
| 20260901102005 | 27 | 76 | 3.2 | 8.0 | 0.00 | 0.03 | 0.03 | 63 | 1018.5 |
| 20260901101505 | 26 | 55 | 3.2 | 8.0 | 0.00 | 0.03 | 0.03 | 63 | 1018.5 |
| 20260901101005 | 25 | 304 | 0.0 | 3.2 | 0.00 | 0.03 | 0.03 | 62 | 1018.5 |
| 20260901100526 | 26 | 315 | 0.0 | 1.6 | 0.00 | 0.03 | 0.03 | 62 | 1018.6 |
| 20260901100005 | 26 | 315 | 0.0 | 1.6 | 0.00 | 0.03 | 0.03 | 62 | 1018.5 |
| 20260901095505 | 26 | 0 | 0.0 | 0.0 | 0.00 | 0.03 | 0.03 | 62 | 1018.5 |
| 20260901095005 | 26 | 0 | 0.0 | 0.0 | 0.00 | 0.03 | 0.03 | 62 | 1018.6 |
| 20260901094505 | 25 | 0 | 0.0 | 0.0 | 0.00 | 0.03 | 0.03 | 62 | 1018.7 |
| 20260901094005 | 25 | 288 | 0.0 | 6.4 | 0.00 | 0.03 | 0.03 | 62 | 1018.6 |
| 20260901093505 | 25 | 262 | 1.6 | 6.4 | 0.00 | 0.03 | 0.03 | 62 | 1018.8 |
| 20260901093005 | 25 | 289 | 3.2 | 11.3 | 0.03 | 0.03 | 0.03 | 62 | 1018.6 |
| 20260901092526 | 25 | 304 | 4.8 | 11.3 | 0.03 | 0.03 | 0.03 | 62 | 1018.6 |
| 20260901092005 | 25 | 313 | 4.8 | 8.0 | 0.03 | 0.03 | 0.03 | 62 | 1018.6 |
| 20260901091505 | 25 | 301 | 4.8 | 8.0 | 0.03 | 0.03 | 0.03 | 61 | 1018.7 |
| 20260901091005 | 25 | 254 | 6.4 | 8.0 | 0.03 | 0.03 | 0.03 | 60 | 1018.5 |
| 20260901090505 | 25 | 246 | 4.8 | 8.0 | 0.03 | 0.03 | 0.03 | 58 | 1018.6 |
| 20260901090005 | 25 | 254 | 0.0 | 1.6 | 0.03 | 0.03 | 0.03 | 57 | 1018.5 |
| 20260901085505 | 24 | 206 | 1.6 | 4.8 | 0.03 | 0.03 | 0.03 | 57 | 1018.6 |
| 20260901085005 | 24 | 191 | 1.6 | 4.8 | 0.03 | 0.03 | 0.03 | 56 | 1018.3 |
| 20260901084505 | 23 | 67 | 0.0 | 1.6 | 0.03 | 0.03 | 0.03 | 56 | 1018.4 |
| 20260901084005 | 23 | 16 | 1.6 | 6.4 | 0.03 | 0.03 | 0.03 | 56 | 1018.5 |
| 20260901083526 | 23 | 21 | 3.2 | 9.7 | 0.03 | 0.03 | 0.03 | 55 | 1018.3 |
| 20260901083005 | 23 | 39 | 8.0 | 12.9 | 0.00 | 0.00 | 0.00 | 55 | 1018.5 |
| 20260901082526 | 24 | 54 | 6.4 | 12.9 | 0.00 | 0.00 | 0.00 | 53 | 1018.3 |
| 20260901082005 | 24 | 57 | 1.6 | 8.0 | 0.00 | 0.00 | 0.00 | 53 | 1018.1 |
| 20260901081505 | 24 | 0 | 0.0 | 0.0 | 0.00 | 0.00 | 0.00 | 53 | 1018.1 |
| 20260901081005 | 24 | 0 | 0.0 | 0.0 | 0.00 | 0.00 | 0.00 | 53 | 1018.3 |
| 20260901080505 | 23 | 0 | 0.0 | 0.0 | 0.00 | 0.00 | 0.00 | 52 | 1018.3 |
| 20260901080026 | 23 | 0 | 0.0 | 0.0 | 0.00 | 0.00 | 0.00 | 52 | 1017.9 |
| 20260901075505 | 22 | 22 | 0.0 | 4.8 | 0.00 | 0.00 | 0.00 | 53 | 1018.1 |
| 20260901075005 | 22 | 22 | 0.0 | 4.8 | 0.00 | 0.00 | 0.00 | 53 | 1018.1 |
| 20260901074505 | 22 | 22 | 0.0 | 1.6 | 0.00 | 0.00 | 0.00 | 54 | 1017.7 |
| 20260901074005 | 22 | 22 | 0.0 | 1.6 | 0.00 | 0.00 | 0.00 | 54 | 1017.9 |
| 20260901073505 | 22 | 22 | 1.6 | 4.8 | 0.00 | 0.00 | 0.00 | 53 | 1017.7 |
| 20260901073005 | 22 | 22 | 1.6 | 6.4 | 0.00 | 0.00 | 0.00 | 53 | 1017.8 |
| 20260901072505 | 22 | 29 | 1.6 | 6.4 | 0.00 | 0.00 | 0.00 | 52 | 1017.7 |
| 20260901072005 | 22 | 28 | 3.2 | 6.4 | 0.00 | 0.00 | 0.00 | 52 | 1017.7 |
| 20260901071505 | 22 | 60 | 4.8 | 8.0 | 0.00 | 0.00 | 0.00 | 51 | 1017.7 |
| 20260901071005 | 22 | 72 | 6.4 | 8.0 | 0.00 | 0.00 | 0.00 | 50 | 1017.8 |
| 20260901070505 | 23 | 52 | 8.0 | 9.7 | 0.00 | 0.00 | 0.00 | 49 | 1017.7 |
| 20260901070005 | 23 | 28 | 3.2 | 9.7 | 0.00 | 0.00 | 0.00 | 49 | 1017.7 |
| 20260901065505 | 23 | 65 | 3.2 | 11.3 | 0.00 | 0.00 | 0.00 | 50 | 1017.7 |
| 20260901065005 | 23 | 71 | 6.4 | 11.3 | 0.00 | 0.00 | 0.00 | 49 | 1017.7 |
| 20260901064505 | 23 | 71 | 6.4 | 8.0 | 0.00 | 0.00 | 0.00 | 47 | 1017.7 |
| 20260901064005 | 23 | 56 | 3.2 | 8.0 | 0.00 | 0.00 | 0.00 | 45 | 1017.4 |
| 20260901063526 | 23 | 22 | 1.6 | 6.4 | 0.00 | 0.00 | 0.00 | 44 | 1017.4 |
| 20260901063005 | 23 | 39 | 3.2 | 12.9 | 0.00 | 0.00 | 0.00 | 43 | 1017.6 |
| 20260901062526 | 22 | 47 | 6.4 | 12.9 | 0.00 | 0.00 | 0.00 | 42 | 1017.5 |
| 20260901062026 | 22 | 49 | 8.0 | 12.9 | 0.00 | 0.00 | 0.00 | 42 | 1017.3 |
| 20260901061505 | 22 | 39 | 8.0 | 11.3 | 0.00 | 0.00 | 0.00 | 42 | 1017.2 |
| 20260901061005 | 22 | 14 | 8.0 | 11.3 | 0.00 | 0.00 | 0.00 | 42 | 1017.0 |
| 20260901060504 | 22 | 5 | 8.0 | 12.9 | 0.00 | 0.00 | 0.00 | 41 | 1016.9 |
| 20260901060005 | 22 | 16 | 9.7 | 12.9 | 0.00 | 0.00 | 0.00 | 41 | 1017.0 |
| 20260901055505 | 22 | 21 | 9.7 | 12.9 | 0.00 | 0.00 | 0.00 | 41 | 1016.8 |
| 20260901055005 | 22 | 34 | 8.0 | 12.9 | 0.00 | 0.00 | 0.00 | 41 | 1016.8 |
| 20260901054505 | 22 | 55 | 9.7 | 12.9 | 0.00 | 0.00 | 0.00 | 44 | 1016.7 |
| 20260901054005 | 22 | 53 | 11.3 | 14.5 | 0.00 | 0.00 | 0.00 | 44 | 1016.8 |
| 20260901053505 | 22 | 35 | 11.3 | 14.5 | 0.00 | 0.00 | 0.00 | 44 | 1016.6 |
| 20260901053005 | 22 | 30 | 8.0 | 12.9 | 0.00 | 0.00 | 0.00 | 44 | 1016.5 |
| 20260901052505 | 22 | 52 | 8.0 | 12.9 | 0.00 | 0.00 | 0.00 | 44 | 1016.5 |
| 20260901052005 | 22 | 42 | 11.3 | 12.9 | 0.00 | 0.00 | 0.00 | 44 | 1016.6 |
| 20260901051505 | 21 | 26 | 9.7 | 12.9 | 0.00 | 0.00 | 0.00 | 44 | 1016.6 |
| 20260901051026 | 21 | 35 | 9.7 | 12.9 | 0.00 | 0.00 | 0.00 | 45 | 1016.5 |
| 20260901050526 | 21 | 49 | 11.3 | 12.9 | 0.00 | 0.00 | 0.00 | 45 | 1016.4 |
| 20260901050005 | 21 | 42 | 9.7 | 12.9 | 0.00 | 0.00 | 0.00 | 45 | 1016.3 |
| 20260901045526 | 21 | 28 | 9.7 | 12.9 | 0.00 | 0.00 | 0.00 | 45 | 1016.2 |
| 20260901045005 | 21 | 24 | 11.3 | 17.7 | 0.00 | 0.00 | 0.00 | 45 | 1016.3 |
| 20260901044506 | 21 | 25 | 11.3 | 17.7 | 0.00 | 0.00 | 0.00 | 45 | 1016.2 |
| 20260901044005 | 21 | 47 | 9.7 | 12.9 | 0.00 | 0.00 | 0.00 | 45 | 1016.1 |
| 20260901043526 | 21 | 60 | 8.0 | 9.7 | 0.00 | 0.00 | 0.00 | 45 | 1015.9 |
| 20260901043026 | 21 | 63 | 6.4 | 9.7 | 0.00 | 0.00 | 0.00 | 45 | 1015.9 |
| 20260901042505 | 21 | 52 | 4.8 | 8.0 | 0.00 | 0.00 | 0.00 | 45 | 1016.0 |
| 20260901042004 | 21 | 23 | 8.0 | 12.9 | 0.00 | 0.00 | 0.00 | 45 | 1015.9 |
| 20260901041526 | 21 | 19 | 9.7 | 12.9 | 0.00 | 0.00 | 0.00 | 45 | 1015.8 |
| 20260901041005 | 21 | 51 | 9.7 | 9.7 | 0.00 | 0.00 | 0.00 | 45 | 1015.7 |
| 20260901040505 | 21 | 61 | 9.7 | 16.1 | 0.00 | 0.00 | 0.00 | 44 | 1015.7 |
| 20260901040004 | 21 | 47 | 11.3 | 17.7 | 0.00 | 0.00 | 0.00 | 44 | 1015.6 |
| 20260901035505 | 21 | 45 | 14.5 | 22.5 | 0.00 | 0.00 | 0.00 | 44 | 1015.3 |
| 20260901035005 | 21 | 45 | 16.1 | 22.5 | 0.00 | 0.00 | 0.00 | 45 | 1015.2 |
| 20260901034505 | 21 | 37 | 14.5 | 17.7 | 0.00 | 0.00 | 0.00 | 45 | 1015.1 |
| 20260901034005 | 21 | 35 | 14.5 | 17.7 | 0.00 | 0.00 | 0.00 | 45 | 1015.1 |
| 20260901033504 | 21 | 33 | 12.9 | 17.7 | 0.00 | 0.00 | 0.00 | 45 | 1015.1 |
| 20260901033005 | 21 | 24 | 12.9 | 20.9 | 0.00 | 0.00 | 0.00 | 45 | 1015.0 |
| 20260901032526 | 22 | 30 | 12.9 | 20.9 | 0.00 | 0.00 | 0.00 | 45 | 1014.9 |
| 20260901032004 | 22 | 24 | 16.1 | 22.5 | 0.00 | 0.00 | 0.00 | 45 | 1014.9 |
| 20260901031505 | 22 | 10 | 20.9 | 24.1 | 0.00 | 0.00 | 0.00 | 45 | 1014.9 |
| 20260901031004 | 22 | 12 | 17.7 | 24.1 | 0.00 | 0.00 | 0.00 | 45 | 1015.0 |
| 20260901030504 | 22 | 17 | 14.5 | 20.9 | 0.00 | 0.00 | 0.00 | 45 | 1015.0 |
| 20260901030005 | 22 | 20 | 14.5 | 24.1 | 0.00 | 0.00 | 0.00 | 45 | 1015.0 |
| 20260901025505 | 22 | 23 | 14.5 | 24.1 | 0.00 | 0.00 | 0.00 | 45 | 1014.8 |
| 20260901025004 | 22 | 20 | 16.1 | 24.1 | 0.00 | 0.00 | 0.00 | 45 | 1015.0 |
| 20260901024504 | 22 | 15 | 16.1 | 17.7 | 0.00 | 0.00 | 0.00 | 42 | 1015.0 |
| 20260901024026 | 22 | 28 | 12.9 | 17.7 | 0.00 | 0.00 | 0.00 | 42 | 1015.0 |
| 20260901023505 | 22 | 42 | 12.9 | 17.7 | 0.00 | 0.00 | 0.00 | 42 | 1015.0 |
| 20260901023005 | 22 | 35 | 12.9 | 17.7 | 0.00 | 0.00 | 0.00 | 42 | 1015.1 |
| 20260901022505 | 22 | 29 | 11.3 | 14.5 | 0.00 | 0.00 | 0.00 | 43 | 1015.1 |
| 20260901022004 | 22 | 20 | 9.7 | 12.9 | 0.00 | 0.00 | 0.00 | 42 | 1015.0 |
| 20260901021505 | 22 | 13 | 11.3 | 16.1 | 0.00 | 0.00 | 0.00 | 42 | 1015.1 |
| 20260901021004 | 22 | 18 | 12.9 | 16.1 | 0.00 | 0.00 | 0.00 | 42 | 1014.9 |
| 20260901020526 | 22 | 22 | 12.9 | 16.1 | 0.00 | 0.00 | 0.00 | 42 | 1015.1 |
| 20260901020026 | 22 | 16 | 11.3 | 16.1 | 0.00 | 0.00 | 0.00 | 42 | 1014.9 |
| 20260901015505 | 23 | 9 | 9.7 | 12.9 | 0.00 | 0.00 | 0.00 | 42 | 1015.0 |
| 20260901015005 | 23 | 17 | 9.7 | 16.1 | 0.00 | 0.00 | 0.00 | 42 | 1015.0 |
| 20260901014505 | 23 | 17 | 8.0 | 16.1 | 0.00 | 0.00 | 0.00 | 42 | 1015.0 |
| 20260901014004 | 23 | 22 | 8.0 | 12.9 | 0.00 | 0.00 | 0.00 | 43 | 1015.0 |
| 20260901013505 | 23 | 19 | 9.7 | 12.9 | 0.00 | 0.00 | 0.00 | 43 | 1014.9 |
| 20260901013005 | 23 | 2 | 8.0 | 11.3 | 0.00 | 0.00 | 0.00 | 43 | 1014.8 |
| 20260901012526 | 23 | 5 | 8.0 | 11.3 | 0.00 | 0.00 | 0.00 | 44 | 1015.0 |
| 20260901012005 | 22 | 18 | 9.7 | 12.9 | 0.00 | 0.00 | 0.00 | 45 | 1014.9 |
| 20260901011504 | 22 | 15 | 9.7 | 14.5 | 0.00 | 0.00 | 0.00 | 45 | 1015.0 |
| 20260901011005 | 22 | 11 | 9.7 | 14.5 | 0.00 | 0.00 | 0.00 | 46 | 1015.0 |
| 20260901010505 | 22 | 11 | 9.7 | 12.9 | 0.00 | 0.00 | 0.00 | 47 | 1014.9 |
| 20260901010005 | 22 | 355 | 8.0 | 12.9 | 0.00 | 0.00 | 0.00 | 49 | 1014.9 |
| 20260901005526 | 22 | 355 | 6.4 | 12.9 | 0.00 | 0.00 | 0.00 | 50 | 1014.8 |
| 20260901005005 | 22 | 5 | 4.8 | 11.3 | 0.00 | 0.00 | 0.00 | 51 | 1014.9 |
| 20260901004526 | 22 | 10 | 4.8 | 12.9 | 0.00 | 0.00 | 0.00 | 51 | 1014.8 |
| 20260901004004 | 22 | 6 | 8.0 | 12.9 | 0.00 | 0.00 | 0.00 | 52 | 1014.8 |
| 20260901003505 | 22 | 4 | 6.4 | 12.9 | 0.00 | 0.00 | 0.00 | 52 | 1014.8 |
| 20260901003005 | 22 | 17 | 4.8 | 6.4 | 0.00 | 0.00 | 0.00 | 53 | 1014.8 |
| 20260901002526 | 22 | 11 | 6.4 | 11.3 | 0.00 | 0.00 | 0.00 | 53 | 1015.0 |
| 20260901002005 | 22 | 15 | 8.0 | 11.3 | 0.00 | 0.00 | 0.00 | 54 | 1014.9 |
| 20260901001526 | 22 | 28 | 6.4 | 11.3 | 0.00 | 0.00 | 0.00 | 55 | 1014.9 |
| 20260901001004 | 22 | 24 | 6.4 | 6.4 | 0.00 | 0.00 | 0.00 | 56 | 1014.9 |
| 20260901000526 | 22 | 21 | 8.0 | 11.3 | 0.00 | 0.00 | 0.00 | 58 | 1014.9 |
| 20260901000005 | 22 | 20 | 6.4 | 11.3 | 0.00 | 0.00 | 0.00 | 58 | 1014.9 |
| 20260831235526 | 22 | 14 | 4.8 | 9.7 | 0.00 | 0.00 | 0.00 | 59 | 1015.0 |
| 20260831235005 | 22 | 7 | 3.2 | 6.4 | 0.00 | 0.00 | 0.00 | 60 | 1014.9 |
| 20260831234504 | 22 | 13 | 0.0 | 1.6 | 0.00 | 0.00 | 0.00 | 60 | 1014.8 |
| 20260831234005 | 22 | 353 | 1.6 | 3.2 | 0.00 | 0.00 | 0.00 | 60 | 1015.0 |
| 20260831233505 | 22 | 8 | 1.6 | 6.4 | 0.00 | 0.00 | 0.00 | 60 | 1014.9 |
| 20260831233005 | 22 | 21 | 3.2 | 6.4 | 0.00 | 0.00 | 0.00 | 61 | 1014.7 |
| 20260831232526 | 22 | 20 | 3.2 | 4.8 | 0.00 | 0.00 | 0.00 | 61 | 1014.9 |
| 20260831232005 | 22 | 15 | 3.2 | 6.4 | 0.00 | 0.00 | 0.00 | 61 | 1014.8 |
| 20260831231505 | 22 | 15 | 4.8 | 6.4 | 0.00 | 0.00 | 0.00 | 62 | 1014.8 |
| 20260831231004 | 22 | 18 | 3.2 | 6.4 | 0.00 | 0.00 | 0.00 | 63 | 1014.5 |
| 20260831230504 | 22 | 17 | 1.6 | 6.4 | 0.00 | 0.00 | 0.00 | 63 | 1014.7 |
| 20260831230004 | 22 | 12 | 1.6 | 3.2 | 0.00 | 0.00 | 0.00 | 64 | 1014.8 |
| 20260831225525 | 22 | 7 | 1.6 | 3.2 | 0.00 | 0.00 | 0.00 | 64 | 1014.6 |
| 20260831225004 | 22 | 7 | 1.6 | 3.2 | 0.00 | 0.00 | 0.00 | 64 | 1014.6 |
| 20260831224504 | 22 | 13 | 1.6 | 3.2 | 0.00 | 0.00 | 0.00 | 64 | 1014.6 |
| 20260831224025 | 22 | 5 | 0.0 | 3.2 | 0.00 | 0.00 | 0.00 | 64 | 1014.5 |
| 20260831223504 | 23 | 6 | 1.6 | 3.2 | 0.00 | 0.00 | 0.00 | 63 | 1014.5 |
| 20260831223004 | 23 | 10 | 1.6 | 3.2 | 0.00 | 0.00 | 0.00 | 64 | 1014.6 |
| 20260831222504 | 23 | 12 | 1.6 | 3.2 | 0.00 | 0.00 | 0.00 | 64 | 1014.6 |
| 20260831222004 | 23 | 13 | 1.6 | 3.2 | 0.00 | 0.00 | 0.00 | 64 | 1014.6 |
| 20260831221504 | 23 | 25 | 0.0 | 1.6 | 0.00 | 0.00 | 0.00 | 65 | 1014.6 |
| 20260831221004 | 23 | 0 | 0.0 | 0.0 | 0.00 | 0.00 | 0.00 | 65 | 1014.5 |
| 20260831220525 | 23 | 9 | 0.0 | 1.6 | 0.00 | 0.00 | 0.00 | 65 | 1014.6 |
| 20260831220004 | 23 | 9 | 0.0 | 1.6 | 0.00 | 0.00 | 0.00 | 65 | 1014.5 |
| 20260831215504 | 23 | 0 | 0.0 | 0.0 | 0.00 | 0.00 | 0.00 | 64 | 1014.5 |
| 20260831215004 | 23 | 360 | 0.0 | 1.6 | 0.00 | 0.00 | 0.00 | 64 | 1014.4 |
| 20260831214525 | 23 | 13 | 0.0 | 1.6 | 0.00 | 0.00 | 0.00 | 64 | 1014.4 |
| 20260831214004 | 23 | 22 | 0.0 | 1.6 | 0.00 | 0.00 | 0.00 | 64 | 1014.5 |
| 20260831213504 | 23 | 0 | 0.0 | 0.0 | 0.00 | 0.00 | 0.00 | 65 | 1014.4 |
| 20260831213004 | 23 | 0 | 0.0 | 0.0 | 0.00 | 0.00 | 0.00 | 65 | 1014.4 |
| 20260831212504 | 23 | 0 | 0.0 | 0.0 | 0.00 | 0.00 | 0.00 | 65 | 1014.3 |
| 20260831212004 | 23 | 0 | 0.0 | 0.0 | 0.00 | 0.00 | 0.00 | 65 | 1014.4 |
| 20260831211504 | 23 | 0 | 0.0 | 0.0 | 0.00 | 0.00 | 0.00 | 65 | 1014.3 |
| 20260831211004 | 23 | 0 | 0.0 | 0.0 | 0.00 | 0.00 | 0.00 | 64 | 1014.3 |
| 20260831210504 | 23 | 0 | 0.0 | 0.0 | 0.00 | 0.00 | 0.00 | 64 | 1014.4 |
| 20260831210004 | 23 | 0 | 0.0 | 0.0 | 0.00 | 0.00 | 0.00 | 63 | 1014.2 |
| 20260831205504 | 23 | 0 | 0.0 | 0.0 | 0.00 | 0.00 | 0.00 | 63 | 1014.3 |
| 20260831205004 | 23 | 0 | 0.0 | 0.0 | 0.00 | 0.00 | 0.00 | 62 | 1014.2 |
| 20260831204504 | 24 | 0 | 0.0 | 0.0 | 0.00 | 0.00 | 0.00 | 62 | 1014.3 |
| 20260831204025 | 24 | 0 | 0.0 | 0.0 | 0.00 | 0.00 | 0.00 | 62 | 1014.3 |
| 20260831203504 | 24 | 0 | 0.0 | 0.0 | 0.00 | 0.00 | 0.00 | 61 | 1014.3 |
| 20260831203004 | 24 | 0 | 0.0 | 0.0 | 0.00 | 0.00 | 0.00 | 61 | 1014.2 |
| 20260831202504 | 24 | 0 | 0.0 | 0.0 | 0.00 | 0.00 | 0.00 | 60 | 1014.0 |
| 20260831202025 | 24 | 0 | 0.0 | 0.0 | 0.00 | 0.00 | 0.00 | 60 | 1014.0 |
| 20260831201504 | 24 | 22 | 0.0 | 1.6 | 0.00 | 0.00 | 0.00 | 60 | 1014.1 |